星链-31239 (STARLINK-31239 )

导读 | 星芒AI

STARLINK-31239 是 SpaceX Starlink 项目中的一颗低轨通信卫星,属于第三代 Starlink 卫星(也称为 v1.5 或 Block V)。该卫星于 2023 年发射,部署在约 540 公里的轨道高度,旨在为全球提供高速互联网服务。它采用先进的推进系统和激光通信技术,以提升网络性能和减少延迟。作为 Starlink 卫星群的一部分,STARLINK-31239 支持偏远地区的宽带接入,并增强整个星座的冗余与覆盖能力。

基本信息
目录编号:
60093
目录名称:
STARLINK-31239
国际标识:
2024-117C
轨道中心:
EARTH
卫星名称:
星链-31239
卫星全名:
星链-31239 (STARLINK-31239 )
卫星状态:
在轨 (已飞行498 天)
发射日期:
2024-06-23 UTC
国别 :
美国 (US)
星等 :
--
轨道信息
数据来源 国际轨道数据
星历时间: 2025-11-02T12:50:54+0800
21小时前
查看轨道信息
半长轴: 6853.363km
偏心率: 0.0001173
轨道倾角: 53.161°
近地点辐角 95.676°
升交点赤经 269.574°
平近点角 264.437°
近地点: 474.424km
远地点: 476.032km
周期: 94.106分钟
每日圈数: 15.301965
详细信息
固有亮度:
5
最大亮度:
1.5
卫星平台:
Starlink v2.0 mini
覆盖范围:
全球
运营商:
太空探索技术公司
运营商所在国:
美国
制造商(研发单位):
太空探索技术公司
制造商所在国:
美国
使用方式:
暂无
卫星简介
星链(Starlink)计划是由太空探索技术公司(SpaceX)提出的一个巨型低轨卫星互联网星座项目,计划在2019年至2024年间在太空搭建由约1.2万颗卫星组成的“星链”网络,其中1584颗将部署在地球上空550千米处的近地轨道,并从2020年开始工作。该卫星仍在工作。
2D轨道图
3D轨道图
轨道高度分析图
轨道倾角分析图
轨道综合分析图
查看轨道综合分析图